• In Hungary
  • List of Countries
  • For 7 days
  • Water Temperature
  • Satellite Maps
  • Weather Map
  • News
  • Weather Widgets
  • user-avatar
    Login

    Hourly Weather Augustowo

    Today, 23 October, Monday

    Time Temperature Precipitation Wind Pressure Humidity
    00:00 +6°C° 0.3 mm 4 mps 744 mmHg 92%
    01:00 +7°C° 0.3 mm 3 mps 744 mmHg 92%
    02:00 +7°C° 0.3 mm 3 mps 744 mmHg 93%
    03:00 +7°C° 0.3 mm 3 mps 744 mmHg 93%
    04:00 +7°C° 0.3 mm 3 mps 744 mmHg 93%
    05:00 +5°C° 0.3 mm 3 mps 744 mmHg 94%
    06:00 +6°C° 0.3 mm 2 mps 744 mmHg 94%
    07:00 +6°C° 0.3 mm 2 mps 744 mmHg 94%
    08:00 +7°C° 0.3 mm 2 mps 744 mmHg 93%
    09:00 +7°C° 0.3 mm 2 mps 744 mmHg 92%
    10:00 +7°C° 0.3 mm 2 mps 745 mmHg 91%
    11:00 +7°C° 0.2 mm 2 mps 745 mmHg 90%
    12:00 +8°C° 0.2 mm 2 mps 745 mmHg 89%
    13:00 +8°C° 0.2 mm 2 mps 745 mmHg 88%
    14:00 +7°C° 0.1 mm 2 mps 745 mmHg 88%
    15:00 +7°C° 0.1 mm 2 mps 746 mmHg 89%
    16:00 +7°C° 0.1 mm 2 mps 746 mmHg 90%
    17:00 +7°C° 0.1 mm 3 mps 747 mmHg 90%
    18:00 +5°C° 0.1 mm 3 mps 747 mmHg 91%
    19:00 +5°C° 0.1 mm 3 mps 748 mmHg 91%
    20:00 +5°C° 0 mm 3 mps 748 mmHg 90%
    21:00 +5°C° 0 mm 3 mps 749 mmHg 89%
    22:00 +5°C° 0 mm 3 mps 749 mmHg 88%
    23:00 +5°C° 0 mm 3 mps 749 mmHg 87%

    Tomorrow, 24 October, Tuesday

    Time Temperature Precipitation Wind Pressure Humidity
    00:00 +4°C° 0 mm 3 mps 750 mmHg 86%
    01:00 +4°C° 0 mm 3 mps 750 mmHg 85%
    02:00 +4°C° 0 mm 3 mps 751 mmHg 84%
    03:00 +4°C° 0 mm 3 mps 751 mmHg 83%
    04:00 +3°C° 0 mm 3 mps 751 mmHg 81%
    05:00 +3°C° 0 mm 3 mps 752 mmHg 81%
    06:00 +3°C° 0 mm 3 mps 752 mmHg 81%
    07:00 +3°C° 0 mm 3 mps 753 mmHg 81%
    08:00 +3°C° 0 mm 3 mps 753 mmHg 78%
    09:00 +4°C° 0 mm 3 mps 753 mmHg 76%
    10:00 +4°C° 0 mm 3 mps 753 mmHg 73%
    11:00 +5°C° 0 mm 3 mps 754 mmHg 71%
    12:00 +7°C° 0 mm 3 mps 754 mmHg 70%
    13:00 +7°C° 0 mm 3 mps 754 mmHg 68%
    14:00 +7°C° 0 mm 2 mps 754 mmHg 70%
    15:00 +7°C° 0 mm 2 mps 754 mmHg 72%
    16:00 +6°C° 0 mm 2 mps 754 mmHg 74%
    17:00 +6°C° 0 mm 2 mps 754 mmHg 75%
    18:00 +6°C° 0 mm 2 mps 755 mmHg 76%
    19:00 +4°C° 0 mm 3 mps 755 mmHg 77%
    20:00 +4°C° 0 mm 3 mps 755 mmHg 77%
    21:00 +4°C° 0 mm 3 mps 755 mmHg 78%
    22:00 +3°C° 0 mm 3 mps 755 mmHg 79%
    23:00 +3°C° 0 mm 3 mps 755 mmHg 79%

    Day after tomorrow, 25 October, Wednesday

    Time Temperature Precipitation Wind Pressure Humidity
    00:00 +3°C° 0 mm 3 mps 755 mmHg 80%
    01:00 +3°C° 0 mm 3 mps 755 mmHg 81%
    02:00 +2°C° 0 mm 3 mps 754 mmHg 81%
    03:00 +1°C° 0 mm 4 mps 754 mmHg 82%
    04:00 +1°C° 0 mm 4 mps 754 mmHg 83%
    05:00 +1°C° 0 mm 4 mps 754 mmHg 83%
    06:00 +1°C° 0 mm 5 mps 753 mmHg 82%
    07:00 +1°C° 0 mm 5 mps 753 mmHg 82%
    08:00 +2°C° 0.1 mm 6 mps 753 mmHg 80%
    09:00 +2°C° 0.1 mm 7 mps 752 mmHg 77%
    10:00 +3°C° 0.1 mm 7 mps 752 mmHg 74%
    11:00 +2°C° 1.5 mm 8 mps 751 mmHg 76%
    12:00 +2°C° 1.5 mm 8 mps 750 mmHg 78%
    13:00 +2°C° 1.5 mm 8 mps 750 mmHg 80%
    14:00 +2°C° 1.6 mm 8 mps 749 mmHg 83%
    15:00 +2°C° 1.6 mm 8 mps 748 mmHg 85%
    16:00 +3°C° 1.6 mm 7 mps 747 mmHg 88%
    17:00 +4°C° 1.1 mm 7 mps 747 mmHg 90%
    18:00 +5°C° 1.1 mm 6 mps 746 mmHg 92%
    19:00 +7°C° 1.1 mm 6 mps 746 mmHg 94%
    20:00 +8°C° 0.2 mm 5 mps 746 mmHg 94%
    21:00 +8°C° 0.2 mm 5 mps 746 mmHg 93%
    22:00 +8°C° 0.2 mm 4 mps 746 mmHg 93%
    23:00 +8°C° 0 mm 4 mps 746 mmHg 93%

    26 October, Thursday

    Time Temperature Precipitation Wind Pressure Humidity
    00:00 +8°C° 0 mm 4 mps 747 mmHg 94%
    01:00 +8°C° 0 mm 4 mps 747 mmHg 94%
    02:00 +8°C° 0 mm 4 mps 747 mmHg 94%
    03:00 +8°C° 0 mm 4 mps 747 mmHg 94%
    04:00 +8°C° 0 mm 4 mps 747 mmHg 94%
    05:00 +8°C° 0 mm 4 mps 747 mmHg 93%
    06:00 +8°C° 0 mm 4 mps 747 mmHg 91%
    07:00 +8°C° 0 mm 4 mps 747 mmHg 90%
    08:00 +9°C° 0 mm 5 mps 747 mmHg 88%
    09:00 +9°C° 0 mm 5 mps 747 mmHg 85%
    10:00 +9°C° 0 mm 5 mps 747 mmHg 83%
    11:00 +10°C° 0.1 mm 5 mps 746 mmHg 82%
    12:00 +10°C° 0.1 mm 5 mps 746 mmHg 82%
    13:00 +10°C° 0.1 mm 5 mps 746 mmHg 81%
    14:00 +11°C° 0.1 mm 4 mps 745 mmHg 84%
    15:00 +10°C° 0.1 mm 4 mps 745 mmHg 86%
    16:00 +10°C° 0.1 mm 4 mps 745 mmHg 89%
    17:00 +10°C° 0.1 mm 4 mps 744 mmHg 90%
    18:00 +8°C° 0.1 mm 4 mps 744 mmHg 91%
    19:00 +8°C° 0.1 mm 4 mps 744 mmHg 92%
    20:00 +8°C° 0 mm 4 mps 743 mmHg 92%
    21:00 +8°C° 0 mm 4 mps 743 mmHg 92%
    22:00 +7°C° 0 mm 4 mps 743 mmHg 92%
    23:00 +7°C° 0 mm 4 mps 742 mmHg 92%

    27 October, Friday

    Time Temperature Precipitation Wind Pressure Humidity
    00:00 +7°C° 0 mm 4 mps 742 mmHg 92%
    01:00 +7°C° 0 mm 4 mps 742 mmHg 92%
    02:00 +7°C° 0 mm 4 mps 741 mmHg 92%
    03:00 +7°C° 0 mm 4 mps 741 mmHg 92%
    04:00 +7°C° 0 mm 4 mps 740 mmHg 92%
    05:00 +7°C° 0 mm 4 mps 740 mmHg 92%
    06:00 +7°C° 0 mm 4 mps 739 mmHg 93%
    07:00 +7°C° 0 mm 4 mps 739 mmHg 93%
    08:00 +7°C° 0.1 mm 4 mps 739 mmHg 91%
    09:00 +8°C° 0.1 mm 4 mps 738 mmHg 88%
    10:00 +8°C° 0.1 mm 4 mps 738 mmHg 86%
    11:00 +8°C° 0.3 mm 4 mps 738 mmHg 84%
    12:00 +9°C° 0.3 mm 5 mps 737 mmHg 81%
    13:00 +9°C° 0.3 mm 5 mps 737 mmHg 79%
    14:00 +9°C° 0.4 mm 5 mps 737 mmHg 80%
    15:00 +8°C° 0.4 mm 4 mps 736 mmHg 82%
    16:00 +8°C° 0.4 mm 4 mps 736 mmHg 83%
    17:00 +7°C° 0.2 mm 4 mps 736 mmHg 85%
    18:00 +7°C° 0.2 mm 4 mps 736 mmHg 88%
    19:00 +6°C° 0.2 mm 4 mps 736 mmHg 90%
    20:00 +6°C° 0 mm 4 mps 736 mmHg 91%
    21:00 +6°C° 0 mm 4 mps 736 mmHg 93%
    22:00 +6°C° 0 mm 4 mps 736 mmHg 94%
    23:00 +6°C° 0 mm 4 mps 736 mmHg 94%

    28 October, Saturday

    Time Temperature Precipitation Wind Pressure Humidity
    00:00 +6°C° 0 mm 4 mps 736 mmHg 94%
    01:00 +6°C° 0 mm 4 mps 735 mmHg 93%
    02:00 +7°C° 0.2 mm 5 mps 735 mmHg 91%
    03:00 +7°C° 0.2 mm 5 mps 734 mmHg 88%
    04:00 +7°C° 0.2 mm 6 mps 733 mmHg 85%
    05:00 +7°C° 0.4 mm 6 mps 733 mmHg 85%
    06:00 +5°C° 0.4 mm 7 mps 732 mmHg 86%
    07:00 +5°C° 0.4 mm 7 mps 731 mmHg 86%
    08:00 +5°C° 0.5 mm 8 mps 729 mmHg 84%
    09:00 +5°C° 0.5 mm 8 mps 728 mmHg 82%
    10:00 +6°C° 0.5 mm 9 mps 727 mmHg 80%
    11:00 +6°C° 1.2 mm 9 mps 725 mmHg 81%
    12:00 +6°C° 1.2 mm 10 mps 724 mmHg 83%
    13:00 +6°C° 1.2 mm 10 mps 722 mmHg 84%
    14:00 +6°C° 1.2 mm 10 mps 721 mmHg 82%
    15:00 +7°C° 1.2 mm 10 mps 721 mmHg 81%
    16:00 +7°C° 1.2 mm 10 mps 720 mmHg 79%
    17:00 +7°C° 0.4 mm 10 mps 720 mmHg 77%
    18:00 +6°C° 0.4 mm 9 mps 719 mmHg 76%
    19:00 +5°C° 0.4 mm 9 mps 719 mmHg 74%
    20:00 +5°C° 0.1 mm 9 mps 719 mmHg 72%
    21:00 +5°C° 0.1 mm 8 mps 719 mmHg 71%
    22:00 +4°C° 0.1 mm 8 mps 719 mmHg 70%
    23:00 +3°C° 0 mm 9 mps 719 mmHg 70%
    Show more